Location: Newark
(45.9456°N, 15.4064°E)
Time: 00:27:28
(UTC+00:00)

Tiros 1 despin weight - All Passes

Search period start: 18 January 2020 00:00
Search period end: 28 January 2020 00:00
Orbit: 593 x 643 km, 48.2° (Epoch: 17 January)

Date Brightness Start Highest point End Pass type
(mag) Time Alt. Az. Time Alt. Az. Time Alt. Az.
18 Jan - 12:50:06 10° SW 12:54:23 40° SSE 12:58:44 10° ENE daylight
18 Jan - 14:31:10 10° WSW 14:35:49 80° NNW 14:40:30 10° ENE daylight
18 Jan - 16:12:59 10° WNW 16:17:39 68° N 16:22:20 10° E visible
18 Jan - 17:54:39 10° WNW 17:59:18 63° SSW 18:03:56 10° SE visible
18 Jan - 19:37:09 10° W 19:40:15 18° SW 19:43:22 10° S visible
19 Jan - 11:26:51 10° S 11:29:52 18° SE 11:32:55 10° E daylight
19 Jan - 13:06:16 10° SW 13:10:48 63° SSE 13:15:25 10° ENE daylight
19 Jan - 14:47:50 10° W 14:52:28 68° N 14:57:08 10° ENE daylight
19 Jan - 16:29:36 10° WNW 16:34:18 80° NNE 16:39:01 10° ESE visible
19 Jan - 18:11:20 10° WNW 18:15:43 40° SSW 18:20:06 10° SE visible
20 Jan - 11:42:07 10° SSW 11:46:05 30° SE 11:50:07 10° E daylight
20 Jan - 13:22:44 10° WSW 13:27:20 89° S 13:32:01 10° ENE daylight
20 Jan - 15:04:30 10° W 15:09:08 66° N 15:13:48 10° E daylight
20 Jan - 16:46:12 10° WNW 16:50:52 78° SSW 16:55:34 10° ESE visible
20 Jan - 18:28:15 10° W 18:32:01 24° SW 18:35:46 10° SSE visible
21 Jan - 10:19:55 10° SSE 10:21:41 12° SE 10:23:28 10° ESE daylight
21 Jan - 11:58:02 10° SW 12:02:25 49° SSE 12:06:54 10° ENE daylight
21 Jan - 13:39:21 10° W 13:43:57 73° N 13:48:37 10° ENE daylight
21 Jan - 15:21:09 10° WNW 15:25:47 72° N 15:30:29 10° E daylight
21 Jan - 17:02:49 10° WNW 17:07:21 52° SSW 17:11:55 10° SE visible
21 Jan - 18:45:51 10° WSW 18:48:11 14° SW 18:50:31 10° SSW visible
22 Jan - 10:34:21 10° S 10:37:50 22° SE 10:41:21 10° E daylight
22 Jan - 12:14:21 10° WSW 12:18:54 74° SSE 12:23:32 10° ENE daylight
22 Jan - 13:56:01 10° W 14:00:37 66° N 14:05:16 10° E daylight
22 Jan - 15:37:45 10° WNW 15:42:25 89° N 15:47:07 10° ESE daylight
22 Jan - 17:19:33 10° W 17:23:44 32° SW 17:27:54 10° SSE visible
23 Jan - 10:49:57 10° SSW 10:54:06 37° SE 10:58:20 10° E daylight
23 Jan - 12:30:52 10° WSW 12:35:28 82° NNW 12:40:08 10° ENE daylight
23 Jan - 14:12:41 10° WNW 14:17:17 67° N 14:21:57 10° E daylight
23 Jan - 15:54:20 10° WNW 15:58:58 67° SSW 16:03:36 10° ESE daylight
23 Jan - 17:36:40 10° W 17:39:58 19° SW 17:43:17 10° S visible
24 Jan - 09:26:55 10° S 09:29:37 16° SE 09:32:20 10° E daylight
24 Jan - 11:06:02 10° SW 11:10:30 59° SSE 11:15:03 10° ENE daylight
24 Jan - 12:47:32 10° W 12:52:06 69° N 12:56:45 10° ENE daylight
24 Jan - 14:29:18 10° WNW 14:33:57 78° NNE 14:38:37 10° E daylight
24 Jan - 16:10:59 10° WNW 16:15:24 43° SSW 16:19:49 10° SE daylight
24 Jan - 17:55:33 10° SW 17:56:06 10° SW 17:56:39 10° SW visible
25 Jan - 09:42:01 10° SSW 09:45:49 27° SE 09:49:41 10° E daylight
25 Jan - 11:22:27 10° WSW 11:27:00 85° SSE 11:31:39 10° ENE daylight
25 Jan - 13:04:12 10° W 13:08:46 65° N 13:13:24 10° E daylight
25 Jan - 14:45:53 10° WNW 14:50:32 82° SSW 14:55:12 10° ESE daylight
25 Jan - 16:27:51 10° W 16:31:43 26° SW 16:35:36 10° SSE visible
26 Jan - 08:20:32 10° SE 08:21:27 11° SE 08:22:22 10° ESE daylight
26 Jan - 09:57:51 10° SW 10:02:08 45° SSE 10:06:30 10° ENE daylight
26 Jan - 11:39:03 10° W 11:43:36 75° NNW 11:48:14 10° ENE daylight
26 Jan - 13:20:51 10° WNW 13:25:26 70° N 13:30:06 10° E daylight
26 Jan - 15:02:29 10° WNW 15:07:01 56° SSW 15:11:36 10° SE daylight
26 Jan - 16:45:17 10° W 16:47:55 15° SW 16:50:34 10° S visible
27 Jan - 08:34:20 10° S 08:37:35 20° SE 08:40:52 10° E daylight
27 Jan - 10:14:06 10° WSW 10:18:35 70° SSE 10:23:09 10° ENE daylight
27 Jan - 11:55:43 10° W 12:00:16 66° N 12:04:53 10° E daylight
27 Jan - 13:37:27 10° WNW 13:42:05 85° NNE 13:46:45 10° ESE daylight
27 Jan - 15:19:13 10° W 15:23:25 35° SW 15:27:39 10° SSE daylight
